Troy, MI

10:17 AM EDT on July 20, 2017 (GMT -0400)
Troy

Weather History for KVLL - May, 2014

Change the Weather History Date:

Sunday, May 25, 2014

  Actual Average (KDET) Record (KDET)
Temperature  
Mean Temperature 67 °F -  
Max Temperature 81 °F 72 °F 91 °F (1975)
Min Temperature 53 °F 53 °F 37 °F (2013)
Cooling Degree Days 2    
Growing Degree Days 17 (Base 50)    
Moisture  
Dew Point 48 °F    
Average Humidity 49    
Maximum Humidity 83    
Minimum Humidity 29    
Precipitation  
Precipitation 0.00 in - - ()
Sea Level Pressure  
Sea Level Pressure 30.13 in    
Wind  
Wind Speed 2 mph (SW)    
Max Wind Speed 9 mph    
Max Gust Speed 16 mph    
Visibility 10 miles    
Events      
Averages and records for this station are not official NWS values.
T = Trace of Precipitation, MM = Missing Value Source: NWS Daily Summary

Daily Weather History Graph

Daily Weather History Graph

Search for Another Location

Airport or City:

Trip Planner

Search our weather history database for the weather conditions in past years. The results will help you decide how hot, cold, wet, or windy it might be!

Date:

Astronomy

May. 25, 2014 Rise Set
Actual Time 6:02 AM EDT 8:57 PM EDT
Civil Twilight 5:28 AM EDT 9:31 PM EDT
Nautical Twilight 4:46 AM EDT 10:13 PM EDT
Astronomical Twilight 3:56 AM EDT 11:03 PM EDT
Moon 4:10 AM EDT (5/25) 5:53 PM EDT (5/25)
Length of Visible Light 16h 02m
Length of Day
14h 55m
Waning Crescent, 10% of the Moon is Illuminated
May 25
Waning Crescent
May 28
New
Jun 5
First Quarter
Jun 13
Full
Jun 19
Last Quarter

Hourly Weather History & Observations

Time (EDT) Temp. Dew Point Humidity Pressure Visibility Wind Dir Wind Speed Gust Speed Precip Events Conditions
12:15 AM 61.9 °F 45.9 °F 56% 30.16 in 10.0 mi Calm Calm - N/A   Clear
12:34 AM 61.3 °F 46.6 °F 58% 30.16 in 10.0 mi Calm Calm - N/A   Clear
12:55 AM 60.4 °F 46.8 °F 61% 30.16 in 10.0 mi Calm Calm - N/A   Clear
1:15 AM 59.2 °F 47.3 °F 65% 30.16 in 10.0 mi Calm Calm - N/A   Clear
1:34 AM 59.5 °F 47.3 °F 64% 30.15 in 10.0 mi Calm Calm - N/A   Clear
2:15 AM 58.1 °F 47.3 °F 67% 30.15 in 10.0 mi Calm Calm - N/A   Clear
2:35 AM 57.9 °F 47.5 °F 68% 30.15 in 10.0 mi Calm Calm - N/A   Clear
2:55 AM 57.0 °F 47.7 °F 71% 30.15 in 10.0 mi Calm Calm - N/A   Clear
3:15 AM 56.5 °F 47.5 °F 72% 30.15 in 10.0 mi Calm Calm - N/A   Clear
3:35 AM 56.1 °F 47.3 °F 72% 30.15 in 10.0 mi Calm Calm - N/A   Clear
3:55 AM 55.4 °F 47.7 °F 75% 30.15 in 10.0 mi Calm Calm - N/A   Clear
4:15 AM 54.9 °F 47.5 °F 76% 30.15 in 10.0 mi Calm Calm - N/A   Clear
4:35 AM 54.7 °F 47.7 °F 77% 30.15 in 10.0 mi Calm Calm - N/A   Clear
4:55 AM 54.7 °F 47.3 °F 76% 30.16 in 10.0 mi Calm Calm - N/A   Clear
5:14 AM 54.5 °F 48.0 °F 79% 30.16 in 10.0 mi Calm Calm - N/A   Clear
5:35 AM 54.0 °F 48.9 °F 83% 30.17 in 10.0 mi Calm Calm - N/A   Clear
5:55 AM 53.4 °F 48.4 °F 83% 30.17 in 10.0 mi Calm Calm - N/A   Clear
6:15 AM 53.8 °F 48.6 °F 82% 30.17 in 10.0 mi Calm Calm - N/A   Clear
6:35 AM 54.1 °F 49.1 °F 83% 30.17 in 10.0 mi Calm Calm - N/A   Clear
6:55 AM 55.4 °F 49.1 °F 79% 30.17 in 10.0 mi Calm Calm - N/A   Clear
7:15 AM 57.0 °F 49.3 °F 75% 30.18 in 10.0 mi Calm Calm - N/A   Clear
7:35 AM 58.5 °F 50.2 °F 74% 30.18 in 10.0 mi Calm Calm - N/A   Clear
7:54 AM 60.6 °F 51.1 °F 71% 30.18 in 10.0 mi Calm Calm - N/A   Clear
8:15 AM 62.8 °F 51.4 °F 66% 30.18 in 10.0 mi Calm Calm - N/A   Clear
8:35 AM 65.1 °F 52.0 °F 62% 30.18 in 10.0 mi Calm Calm - N/A   Clear
8:54 AM 67.3 °F 52.0 °F 58% 30.18 in 10.0 mi Calm Calm - N/A   Clear
9:15 AM 70.3 °F 48.9 °F 47% 30.18 in 10.0 mi SW 3.5 mph - N/A   Clear
9:35 AM 71.8 °F 48.6 °F 44% 30.18 in 10.0 mi Calm Calm - N/A   Clear
9:55 AM 72.9 °F 49.1 °F 43% 30.18 in 10.0 mi Calm Calm - N/A   Clear
10:15 AM 74.7 °F 48.6 °F 40% 30.18 in 10.0 mi West 5.8 mph - N/A   Clear
11:15 AM 76.1 °F 45.7 °F 34% 30.17 in 10.0 mi NW 3.5 mph - N/A   Clear
11:35 AM 77.4 °F 46.6 °F 34% 30.16 in 10.0 mi WSW 4.6 mph - N/A   Clear
11:55 AM 77.4 °F 45.3 °F 32% 30.16 in 10.0 mi WSW 6.9 mph - N/A   Clear
12:15 PM 77.0 °F 45.9 °F 33% 30.16 in 10.0 mi SSE 3.5 mph - N/A   Clear
12:35 PM 78.3 °F 45.5 °F 31% 30.15 in 10.0 mi Calm Calm - N/A   Clear
12:55 PM 78.3 °F 45.1 °F 31% 30.15 in 10.0 mi West 6.9 mph - N/A   Clear
1:14 PM 78.6 °F 46.0 °F 32% 30.15 in 10.0 mi SW 8.1 mph - N/A   Clear
1:35 PM 79.2 °F 46.0 °F 31% 30.15 in 10.0 mi SSW 5.8 mph - N/A   Clear
1:55 PM 80.2 °F 45.7 °F 30% 30.14 in 10.0 mi SW 8.1 mph - N/A   Clear
2:15 PM 79.9 °F 45.1 °F 29% 30.14 in 10.0 mi WSW 5.8 mph - N/A   Clear
2:35 PM 79.2 °F 47.5 °F 33% 30.13 in 10.0 mi Calm Calm - N/A   Scattered Clouds
2:55 PM 80.4 °F 46.9 °F 31% 30.13 in 10.0 mi WSW 5.8 mph - N/A   Scattered Clouds
3:15 PM 80.1 °F 46.4 °F 31% 30.13 in 10.0 mi SW 4.6 mph - N/A   Clear
3:35 PM 80.2 °F 46.9 °F 31% 30.13 in 10.0 mi West 3.5 mph - N/A   Clear
3:55 PM 81.0 °F 46.9 °F 30% 30.12 in 10.0 mi SW 8.1 mph 16.1 mph N/A   Scattered Clouds
4:15 PM 79.7 °F 46.0 °F 30% 30.12 in 10.0 mi WSW 8.1 mph - N/A   Scattered Clouds
4:35 PM 80.4 °F 46.9 °F 31% 30.11 in 10.0 mi SW 8.1 mph 16.1 mph N/A   Scattered Clouds
4:54 PM 80.6 °F 46.8 °F 30% 30.11 in 10.0 mi WSW 9.2 mph - N/A   Scattered Clouds
5:34 PM 81.1 °F 47.3 °F 30% 30.10 in 10.0 mi South 6.9 mph - N/A   Scattered Clouds
5:55 PM 80.6 °F 46.0 °F 30% 30.09 in 10.0 mi WSW 5.8 mph - N/A   Clear
6:15 PM 80.4 °F 46.0 °F 30% 30.08 in 10.0 mi South 8.1 mph - N/A   Clear
6:35 PM 80.4 °F 45.9 °F 30% 30.08 in 10.0 mi West 5.8 mph - N/A   Clear
6:55 PM 80.1 °F 46.2 °F 30% 30.07 in 10.0 mi WSW 8.1 mph - N/A   Clear
7:15 PM 80.1 °F 45.9 °F 30% 30.07 in 10.0 mi SW 8.1 mph - N/A   Clear
7:35 PM 79.7 °F 46.2 °F 31% 30.08 in 10.0 mi SW 6.9 mph - N/A   Clear
7:55 PM 79.7 °F 46.2 °F 31% 30.07 in 10.0 mi West 3.5 mph - N/A   Clear
8:14 PM 79.0 °F 46.4 °F 32% 30.07 in 10.0 mi WSW 3.5 mph - N/A   Clear
8:35 PM 77.2 °F 48.2 °F 36% 30.07 in 10.0 mi SSW 8.1 mph - N/A   Clear
8:55 PM 76.1 °F 48.2 °F 37% 30.07 in 10.0 mi SW 5.8 mph - N/A   Clear
9:14 PM 75.2 °F 48.9 °F 39% 30.07 in 10.0 mi SSW 6.9 mph - N/A   Clear
9:35 PM 73.6 °F 49.3 °F 42% 30.08 in 10.0 mi South 3.5 mph - N/A   Clear
9:55 PM 72.1 °F 49.1 °F 44% 30.09 in 10.0 mi South 6.9 mph - N/A   Clear
10:15 PM 71.1 °F 49.1 °F 46% 30.10 in 10.0 mi SSW 5.8 mph - N/A   Clear
10:35 PM 70.3 °F 49.1 °F 47% 30.10 in 10.0 mi SSW 3.5 mph - N/A   Clear
10:55 PM 69.8 °F 49.5 °F 48% 30.10 in 10.0 mi SW 4.6 mph - N/A   Clear
11:15 PM 68.7 °F 50.0 °F 51% 30.10 in 10.0 mi SW 5.8 mph - N/A   Clear
11:35 PM 68.0 °F 50.4 °F 53% 30.09 in 10.0 mi SW 5.8 mph - N/A   Clear
11:55 PM 67.5 °F 50.5 °F 55% 30.09 in 10.0 mi SW 4.6 mph - N/A   Clear